Location: Huesca
(42.1318°N, 0.4078°W)
Time: 16:06:10
(UTC+02:00)

Tiros 1 despin weight - Visible Passes

Search period start: 14 July 2024 00:00
Search period end: 24 July 2024 00:00
Orbit: 576 x 620 km, 48.2° (Epoch: 13 July)

Date Brightness Start Highest point End Pass type
(mag) Time Alt. Az. Time Alt. Az. Time Alt. Az.
14 Jul ? 05:14:18 19° SSW 05:17:02 41° SE 05:21:13 10° ENE visible
15 Jul ? 03:47:11 13° ESE 03:47:11 13° ESE 03:48:45 10° ESE visible
15 Jul ? 05:23:49 18° SW 05:27:00 68° SSE 05:31:25 10° ENE visible
16 Jul ? 03:56:39 24° SE 03:56:39 24° SE 03:59:50 10° E visible
16 Jul ? 05:33:17 14° WSW 05:37:03 80° NNW 05:41:31 10° ENE visible
17 Jul ? 04:06:04 40° SE 04:06:09 40° SE 04:10:17 10° ENE visible
17 Jul ? 05:42:52 10° W 05:47:11 57° NNW 05:51:34 10° ENE visible
18 Jul ? 04:15:25 56° SSW 04:16:05 66° SSE 04:20:27 10° ENE visible
18 Jul ? 05:53:10 10° W 05:57:22 44° NNW 06:01:39 10° ENE visible
19 Jul ? 02:48:07 13° E 02:48:07 13° E 02:48:49 10° E visible
19 Jul ? 04:24:44 43° WSW 04:26:06 81° NNW 04:30:32 10° ENE visible
19 Jul ? 06:03:29 10° WNW 06:07:36 38° N 06:11:47 10° ENE visible
20 Jul ? 02:57:24 22° E 02:57:24 22° E 02:59:15 10° ENE visible
20 Jul ? 04:34:01 27° W 04:36:12 57° NNW 04:40:33 10° ENE visible
21 Jul ? 03:06:38 37° E 03:06:38 37° E 03:09:26 10° ENE visible
21 Jul ? 04:43:15 17° W 04:46:21 45° NNW 04:50:36 10° ENE visible
22 Jul ? 03:15:51 59° NE 03:15:51 59° NE 03:19:28 10° ENE visible
22 Jul ? 04:52:29 10° WNW 04:56:33 38° N 05:00:42 10° ENE visible
23 Jul ? 03:25:02 58° NNW 03:25:08 58° NNW 03:29:28 10° ENE visible
23 Jul ? 05:02:42 10° WNW 05:06:46 36° N 05:10:53 10° ENE visible
